When you browse on this site, cookies collect data to enhance your experience and personalize the content and advertising you see.
Visit our Privacy Policy to learn more. By continuing to use the site, you agree to this use of cookies and data.
  • In Czech Republic
  • List of Countries
  • For 7 days
  • Water Temperature
  • Weather Map
  • Weather Widgets
  • user-avatar
    Login

    Hourly Weather Kachikatcy

    Today, 31 May, Sunday

    Time Temperature Precipitation Wind Pressure Humidity
    00:00 +3°C° 0 mm 1 mps 744 mmHg 51%
    01:00 +2°C° 0 mm 1 mps 744 mmHg 53%
    02:00 +2°C° 0 mm 1 mps 744 mmHg 54%
    03:00 +1°C° 0 mm 1 mps 744 mmHg 56%
    04:00 +3°C° 0 mm 1 mps 744 mmHg 52%
    05:00 +4°C° 0 mm 1 mps 744 mmHg 48%
    06:00 +6°C° 0 mm 1 mps 744 mmHg 44%
    07:00 +8°C° 0 mm 1 mps 744 mmHg 40%
    08:00 +11°C° 0 mm 1 mps 744 mmHg 36%
    09:00 +13°C° 0 mm 1 mps 744 mmHg 32%
    10:00 +14°C° 0 mm 1 mps 743 mmHg 31%
    11:00 +15°C° 0 mm 1 mps 743 mmHg 30%
    12:00 +16°C° 0 mm 1 mps 743 mmHg 29%
    13:00 +16°C° 0 mm 1 mps 742 mmHg 29%
    14:00 +16°C° 0 mm 1 mps 742 mmHg 29%
    15:00 +15°C° 0 mm 2 mps 742 mmHg 30%
    16:00 +15°C° 0 mm 2 mps 742 mmHg 32%
    17:00 +15°C° 0 mm 1 mps 742 mmHg 34%
    18:00 +15°C° 0 mm 1 mps 742 mmHg 35%
    19:00 +13°C° 0 mm 1 mps 742 mmHg 43%
    20:00 +11°C° 0 mm 1 mps 742 mmHg 50%
    21:00 +8°C° 0 mm 0 mps 742 mmHg 58%
    22:00 +7°C° 0 mm 0 mps 743 mmHg 61%
    23:00 +6°C° 0 mm 0 mps 743 mmHg 63%

    Tomorrow, 1 June, Monday

    Time Temperature Precipitation Wind Pressure Humidity
    00:00 +5°C° 0 mm 0 mps 743 mmHg 66%
    01:00 +5°C° 0 mm 1 mps 743 mmHg 68%
    02:00 +5°C° 0 mm 1 mps 743 mmHg 69%
    03:00 +4°C° 0 mm 1 mps 743 mmHg 71%
    04:00 +6°C° 0 mm 1 mps 743 mmHg 65%
    05:00 +8°C° 0 mm 1 mps 744 mmHg 60%
    06:00 +10°C° 0 mm 1 mps 744 mmHg 54%
    07:00 +12°C° 0 mm 1 mps 744 mmHg 48%
    08:00 +14°C° 0 mm 1 mps 743 mmHg 42%
    09:00 +16°C° 0 mm 1 mps 743 mmHg 35%
    10:00 +18°C° 0 mm 1 mps 743 mmHg 33%
    11:00 +20°C° 0 mm 1 mps 743 mmHg 30%
    12:00 +21°C° 0 mm 1 mps 742 mmHg 28%
    13:00 +21°C° 0 mm 1 mps 742 mmHg 27%
    14:00 +22°C° 0 mm 1 mps 742 mmHg 26%
    15:00 +20°C° 0 mm 0 mps 741 mmHg 26%
    16:00 +19°C° 0 mm 0 mps 741 mmHg 27%
    17:00 +18°C° 0 mm 0 mps 741 mmHg 27%
    18:00 +18°C° 0 mm 0 mps 741 mmHg 28%
    19:00 +18°C° 0 mm 1 mps 741 mmHg 35%
    20:00 +14°C° 0 mm 1 mps 741 mmHg 42%
    21:00 +12°C° 0 mm 1 mps 741 mmHg 49%
    22:00 +11°C° 0 mm 1 mps 742 mmHg 51%
    23:00 +10°C° 0 mm 1 mps 742 mmHg 53%

    Day after tomorrow, 2 June, Tuesday

    Time Temperature Precipitation Wind Pressure Humidity
    00:00 +9°C° 0 mm 1 mps 742 mmHg 55%
    01:00 +8°C° 0 mm 1 mps 742 mmHg 57%
    02:00 +8°C° 0 mm 1 mps 742 mmHg 58%
    03:00 +7°C° 0 mm 1 mps 742 mmHg 60%
    04:00 +9°C° 0 mm 1 mps 742 mmHg 57%
    05:00 +9°C° 0 mm 0 mps 742 mmHg 54%
    06:00 +11°C° 0 mm 0 mps 742 mmHg 50%
    07:00 +13°C° 0 mm 0 mps 742 mmHg 45%
    08:00 +18°C° 0 mm 1 mps 742 mmHg 39%
    09:00 +20°C° 0 mm 1 mps 742 mmHg 33%
    10:00 +21°C° 0 mm 1 mps 741 mmHg 31%
    11:00 +20°C° 0 mm 2 mps 741 mmHg 29%
    12:00 +21°C° 0 mm 2 mps 741 mmHg 26%
    13:00 +21°C° 0 mm 2 mps 741 mmHg 26%
    14:00 +21°C° 0 mm 2 mps 740 mmHg 26%
    15:00 +23°C° 0 mm 2 mps 740 mmHg 25%
    16:00 +23°C° 0 mm 2 mps 740 mmHg 27%
    17:00 +21°C° 0 mm 2 mps 740 mmHg 28%
    18:00 +21°C° 0 mm 2 mps 740 mmHg 30%
    19:00 +19°C° 0 mm 2 mps 740 mmHg 37%
    20:00 +18°C° 0 mm 1 mps 740 mmHg 45%
    21:00 +15°C° 0 mm 1 mps 740 mmHg 53%
    22:00 +13°C° 0 mm 1 mps 740 mmHg 56%
    23:00 +12°C° 0 mm 1 mps 740 mmHg 58%

    3 June, Wednesday

    Time Temperature Precipitation Wind Pressure Humidity
    00:00 +11°C° 0 mm 1 mps 741 mmHg 61%
    01:00 +10°C° 0 mm 1 mps 741 mmHg 62%
    02:00 +9°C° 0 mm 1 mps 741 mmHg 63%
    03:00 +9°C° 0 mm 1 mps 741 mmHg 64%
    04:00 +10°C° 0 mm 1 mps 741 mmHg 61%
    05:00 +12°C° 0 mm 1 mps 741 mmHg 58%
    06:00 +13°C° 0 mm 1 mps 741 mmHg 55%
    07:00 +15°C° 0 mm 1 mps 741 mmHg 49%
    08:00 +18°C° 0 mm 1 mps 741 mmHg 42%
    09:00 +20°C° 0 mm 2 mps 741 mmHg 36%
    10:00 +20°C° 0 mm 2 mps 741 mmHg 33%
    11:00 +21°C° 0 mm 3 mps 741 mmHg 31%
    12:00 +22°C° 0 mm 3 mps 741 mmHg 28%
    13:00 +22°C° 0 mm 3 mps 741 mmHg 27%
    14:00 +24°C° 0 mm 3 mps 741 mmHg 26%
    15:00 +24°C° 0 mm 3 mps 740 mmHg 26%
    16:00 +24°C° 0 mm 3 mps 740 mmHg 27%
    17:00 +22°C° 0 mm 3 mps 740 mmHg 28%
    18:00 +22°C° 0 mm 3 mps 740 mmHg 28%
    19:00 +20°C° 0 mm 2 mps 740 mmHg 36%
    20:00 +18°C° 0 mm 2 mps 740 mmHg 44%
    21:00 +16°C° 0 mm 2 mps 741 mmHg 52%
    22:00 +14°C° 0 mm 1 mps 741 mmHg 57%
    23:00 +13°C° 0 mm 1 mps 741 mmHg 61%

    4 June, Thursday

    Time Temperature Precipitation Wind Pressure Humidity
    00:00 +11°C° 0 mm 1 mps 741 mmHg 65%
    01:00 +10°C° 0 mm 0 mps 741 mmHg 66%
    02:00 +9°C° 0 mm 0 mps 741 mmHg 67%
    03:00 +9°C° 0 mm 0 mps 742 mmHg 68%
    04:00 +11°C° 0 mm 1 mps 742 mmHg 65%
    05:00 +12°C° 0 mm 1 mps 742 mmHg 63%
    06:00 +14°C° 0 mm 1 mps 742 mmHg 60%
    07:00 +15°C° 0 mm 1 mps 742 mmHg 55%
    08:00 +17°C° 0 mm 2 mps 742 mmHg 49%
    09:00 +19°C° 0 mm 2 mps 742 mmHg 43%
    10:00 +19°C° 0 mm 3 mps 742 mmHg 39%
    11:00 +20°C° 0 mm 4 mps 742 mmHg 36%
    12:00 +21°C° 0 mm 5 mps 742 mmHg 32%
    13:00 +20°C° 0 mm 5 mps 742 mmHg 39%
    14:00 +17°C° 0 mm 5 mps 742 mmHg 46%
    15:00 +16°C° 0 mm 6 mps 741 mmHg 53%
    16:00 +15°C° 0 mm 5 mps 741 mmHg 61%
    17:00 +14°C° 0 mm 4 mps 741 mmHg 68%
    18:00 +12°C° 0 mm 3 mps 741 mmHg 76%
    19:00 +13°C° 0 mm 2 mps 742 mmHg 78%
    20:00 +13°C° 0 mm 2 mps 742 mmHg 80%
    21:00 +12°C° 0 mm 1 mps 742 mmHg 82%
    22:00 +12°C° 0 mm 1 mps 742 mmHg 84%
    23:00 +11°C° 0 mm 1 mps 742 mmHg 86%

    5 June, Friday

    Time Temperature Precipitation Wind Pressure Humidity
    00:00 +11°C° 0 mm 1 mps 742 mmHg 88%
    01:00 +11°C° 0 mm 1 mps 742 mmHg 90%
    02:00 +11°C° 0 mm 1 mps 742 mmHg 92%
    03:00 +9°C° 0 mm 2 mps 742 mmHg 94%
    04:00 +10°C° 0 mm 2 mps 742 mmHg 92%
    05:00 +12°C° 0 mm 2 mps 741 mmHg 90%
    06:00 +12°C° 0 mm 2 mps 741 mmHg 87%
    07:00 +13°C° 0 mm 2 mps 741 mmHg 85%
    08:00 +13°C° 0 mm 2 mps 742 mmHg 83%
    09:00 +14°C° 0 mm 2 mps 742 mmHg 81%
    10:00 +14°C° 0.2 mm 2 mps 741 mmHg 80%
    11:00 +14°C° 0.2 mm 1 mps 741 mmHg 78%
    12:00 +15°C° 0.2 mm 1 mps 741 mmHg 77%
    13:00 +16°C° 0.2 mm 1 mps 741 mmHg 70%
    14:00 +19°C° 0.2 mm 1 mps 741 mmHg 63%
    15:00 +20°C° 0.2 mm 1 mps 740 mmHg 55%
    16:00 +19°C° 0 mm 2 mps 740 mmHg 55%
    17:00 +19°C° 0 mm 2 mps 740 mmHg 55%
    18:00 +19°C° 0 mm 2 mps 740 mmHg 55%
    19:00 +17°C° 0 mm 2 mps 740 mmHg 61%
    20:00 +16°C° 0 mm 2 mps 740 mmHg 68%
    21:00 +14°C° 0 mm 1 mps 740 mmHg 75%
    22:00 +13°C° 0 mm 1 mps 740 mmHg 77%
    23:00 +12°C° 0 mm 1 mps 740 mmHg 79%
    Show more